千帆星座-4 (QIANFAN-4)

导读

QIANFAN-4 是中国“千帆星座”计划中的一颗低轨卫星,旨在构建全球覆盖的卫星互联网系统。该卫星具备高速数据传输和高精度定位功能,支持多种通信服务和遥感应用。作为星座网络的重要组成部分,QIANFAN-4 将提升我国在空间信息领域的自主可控能力,为物联网、智慧城市、应急通信等领域提供有力支撑。

基本信息
目录编号:
60382
目录名称:
QIANFAN-4
国际标识:
2024-140D
轨道中心:
EARTH
卫星名称:
千帆星座-4 (QIANFAN-4)
卫星全名:
千帆星座-4 (QIANFAN-4)
卫星状态:
在轨 (已飞行720 天)
发射日期:
2024-08-06 UTC
国别 :
中国 (CN)
星等 :
--
轨道信息
数据来源 国际轨道数据 AOE轨道数据
星历时间 2026-07-27T21:26:56+0800
8小时前
查看轨道信息
2026-07-26T08:00:00+0800
1天前
查看轨道信息
半长轴 7446.639km 7446.641km
偏心率 0.00109 0.0010834
轨道倾角 88.973° 88.974°
近地点辐角 249.718° 256.090°
升交点赤经 275.623° 275.784°
平近点角 110.280° 79.264°
近地点 1060.385km 1060.436km
远地点 1076.619km 1076.572km
周期 106.586分钟 106.586分钟
每日圈数 13.510218 13.510212
详细信息
运营商:
上海垣信卫星科技有限公司
运营商所在国:
中国
使用方式:
暂无
卫星简介
千帆星座,也被称为“G60星链”计划,是中国版“星链”的重要组成部分,旨在打造一个由1.4万多颗低轨宽频多媒体卫星构成的庞大星座。千帆星座计划由上海垣信卫星科技有限公司负责实施,于2023年启动建设。该项目是我国第二个低轨卫星大星座,旨在通过构建庞大的卫星网络,为全球用户提供高质量的通信和宽带互联网服务。
2D轨道图
3D轨道图
轨道高度分析图
轨道倾角分析图
轨道综合分析图
查看轨道综合分析图